C/2020 F3 ( NEOWISE )

Japanese version
Home page
Updated on September 9, 2020

---------------------------------------------------------------------

* Profile

Discovery Date March 27, 2020
Magnitude 17 mag
Discoverer Near-Earth Object Wide-field Infrared Survey Explorer

* Pictures

* Orbital Elements

Epoch 2020 July 10.0 TT = JDT 2459040.5
T 2020 July 3.67906 TT                                  Rudenko
q   0.2946495            (2000.0)            P               Q
z  +0.0027626      Peri.   37.27883     +0.71860090     +0.14386831
 +/-0.0000016      Node    61.01055     +0.28190295     -0.95464033
e   0.9991860      Incl.  128.93732     +0.63572280     +0.26069857
From 1151 observations 2020 Mar. 27-Aug. 29, mean residual 0".7.

* Finding Charts

* Magnitudes Graph

        m1 = 3.5 + 5 log d + 30   log r  [   ,-66]  (             - 2020 Apr. 28)
        m1 = 7.0 + 5 log d + 12.0 log r  [-66,  0]  (2020 Apr. 28 - 2020 July  3)
        m1 = 6.0 + 5 log d + 10.0 log r  [  0,   ]  (2020 July  3 -             )

---------------------------------------------------------------------

The orbital elements are published on M.P.E.C. 2020-R04.
The charts are made with StellaNavigator Ver.10 (AstroArts).
The magnitudes graphs are made with Comet for Windows.

---------------------------------------------------------------------

Copyright(C) Seiichi Yoshida (comet@aerith.net). All rights reserved.